KK4OHF Weather Reports


time (UTC)temp
C
wind
direction
speed
KPH
gust
KPH
rain 1hr
cm
rain 24hr
cm
rain mn
cm
humidity
%
barometer
mb
20260506005006 22 124 1.6 4.8 0.00 0.00 0.00 51 1012.1
20260506004505 22 138 1.6 4.8 0.00 0.00 0.00 50 1012.1
20260506004005 22 144 3.2 11.3 0.00 0.00 0.00 50 1012.1
20260506003505 22 137 1.6 4.8 0.00 0.00 0.00 49 1012.1
20260506003005 22 153 1.6 4.8 0.00 0.00 0.00 49 1012.1
20260506001505 22 167 1.6 3.2 0.00 0.00 0.00 48 1012.1
20260506001005 22 92 0.0 1.6 0.00 0.00 0.00 47 1012.1
20260506000505 22 129 0.0 1.6 0.00 0.00 0.00 46 1012.1
20260506000005 23 94 0.0 3.2 0.00 0.00 0.00 46 1012.1
20260505235504 23 81 0.0 3.2 0.00 0.00 0.00 46 1012.1
20260505235005 23 150 0.0 3.2 0.00 0.00 0.00 46 1012.1
20260505234505 23 157 0.0 4.8 0.00 0.00 0.00 45 1012.1
20260505234005 23 149 1.6 8.0 0.00 0.00 0.00 45 1012.1
20260505232505 23 115 3.2 8.0 0.00 0.00 0.00 43 1012.1
20260505232006 23 182 3.2 11.3 0.00 0.00 0.00 42 1012.1
20260505231504 23 241 1.6 4.8 0.00 0.00 0.00 42 1012.1
20260505230005 24 340 1.6 8.0 0.00 0.00 0.00 41 1012.1
20260505225506 24 296 3.2 8.0 0.00 0.00 0.00 41 1012.1
20260505225005 24 185 3.2 8.0 0.00 0.00 0.00 40 1012.1
20260505224505 24 138 4.8 11.3 0.00 0.00 0.00 39 1012.1
20260505224006 25 30 3.2 8.0 0.00 0.00 0.00 38 1012.0
20260505223505 25 106 3.2 11.3 0.00 0.00 0.00 37 1012.0
20260505223005 25 141 4.8 11.3 0.00 0.00 0.00 38 1012.0
20260505222505 25 50 4.8 11.3 0.00 0.00 0.00 38 1012.0
20260505222006 25 75 3.2 11.3 0.00 0.00 0.00 38 1012.0
20260505221505 25 168 3.2 11.3 0.00 0.00 0.00 38 1012.0
20260505220505 25 116 3.2 14.5 0.00 0.00 0.00 37 1012.0
20260505215505 25 50 4.8 16.1 0.00 0.00 0.00 35 1012.0
20260505215005 25 142 3.2 16.1 0.00 0.00 0.00 38 1012.0
20260505214504 25 174 3.2 11.3 0.00 0.00 0.00 38 1012.0
20260505214005 25 117 3.2 12.9 0.00 0.00 0.00 36 1012.0
20260505213505 26 136 4.8 12.9 0.00 0.00 0.00 37 1012.0
20260505213005 26 162 1.6 4.8 0.00 0.00 0.00 38 1012.5
20260505212504 26 131 3.2 12.9 0.00 0.00 0.00 38 1012.5
20260505212005 26 128 3.2 9.7 0.00 0.00 0.00 38 1012.5
20260505211505 26 136 1.6 9.7 0.00 0.00 0.00 40 1012.5
20260505211006 26 132 3.2 12.9 0.00 0.00 0.00 38 1012.5
20260505210006 26 112 1.6 8.0 0.00 0.00 0.00 37 1012.5
20260505205505 26 255 3.2 4.8 0.00 0.00 0.00 38 1012.5
20260505205005 26 172 3.2 12.9 0.00 0.00 0.00 37 1012.5
20260505204505 26 163 4.8 12.9 0.00 0.00 0.00 37 1012.5
20260505203505 26 77 1.6 4.8 0.00 0.00 0.00 37 1013.0
20260505203005 26 290 3.2 11.3 0.00 0.00 0.00 36 1013.0
20260505202504 26 111 3.2 12.9 0.00 0.00 0.00 38 1013.0
20260505202005 26 296 3.2 11.3 0.00 0.00 0.00 37 1013.0
20260505201505 26 79 3.2 14.5 0.00 0.00 0.00 36 1013.0
20260505201004 26 81 3.2 8.0 0.00 0.00 0.00 37 1013.2
20260505200505 26 272 3.2 9.7 0.00 0.00 0.00 38 1013.2
20260505200005 26 157 1.6 4.8 0.00 0.00 0.00 40 1013.2
20260505195504 26 350 3.2 11.3 0.00 0.00 0.00 38 1013.2
20260505195006 26 292 3.2 12.9 0.00 0.00 0.00 37 1013.2
20260505194005 27 157 3.2 12.9 0.00 0.00 0.00 39 1014.9
20260505193506 26 246 1.6 4.8 0.00 0.00 0.00 40 1014.9
20260505193005 26 116 3.2 12.9 0.00 0.00 0.00 40 1014.9
20260505192506 26 138 3.2 11.3 0.00 0.00 0.00 38 1014.9
20260505190505 26 214 3.2 11.3 0.00 0.00 0.00 40 1014.9
20260505190006 26 251 4.8 11.3 0.00 0.00 0.00 41 1014.9
20260505185005 26 93 3.2 8.0 0.00 0.00 0.00 39 1014.9
20260505184505 25 310 3.2 11.3 0.00 0.00 0.00 39 1014.9
20260505183505 25 83 1.6 4.8 0.00 0.00 0.00 42 1014.9
20260505183006 25 121 3.2 8.0 0.00 0.00 0.00 41 1014.9
20260505182504 25 81 3.2 8.0 0.00 0.00 0.00 40 1014.9
20260505182006 25 241 1.6 12.9 0.00 0.00 0.00 40 1014.9
20260505181006 25 358 1.6 11.3 0.00 0.00 0.00 43 1014.9
20260505180505 25 210 1.6 11.3 0.00 0.00 0.00 40 1014.9
20260505180006 25 123 3.2 12.9 0.00 0.00 0.00 41 1014.9
20260505175505 25 294 3.2 9.7 0.00 0.00 0.00 40 1014.9
20260505175005 25 66 3.2 4.8 0.00 0.00 0.00 41 1014.9
20260505174505 25 349 1.6 4.8 0.00 0.00 0.00 41 1014.9
20260505174006 25 174 3.2 4.8 0.00 0.00 0.00 41 1014.9
20260505173505 25 234 3.2 11.3 0.00 0.00 0.00 41 1014.9
20260505173005 25 184 4.8 12.9 0.00 0.00 0.00 40 1014.9
20260505172506 25 284 3.2 11.3 0.00 0.00 0.00 43 1014.9
20260505172006 25 319 3.2 8.0 0.00 0.00 0.00 42 1014.9
20260505171006 25 99 3.2 11.3 0.00 0.00 0.00 43 1014.9
20260505170506 25 263 3.2 8.0 0.00 0.00 0.00 45 1014.9
20260505170005 25 72 4.8 9.7 0.00 0.00 0.00 44 1015.0
20260505165505 24 80 3.2 11.3 0.00 0.00 0.00 44 1015.0
20260505165005 24 291 4.8 11.3 0.00 0.00 0.00 44 1015.0
20260505164506 24 67 4.8 12.9 0.00 0.00 0.00 42 1015.0
20260505164006 24 136 4.8 12.9 0.00 0.00 0.00 43 1015.0
20260505163505 24 101 4.8 12.9 0.00 0.00 0.00 44 1015.0
20260505163007 24 47 4.8 9.7 0.00 0.00 0.00 45 1015.0
20260505162006 23 24 3.2 11.3 0.00 0.00 0.00 44 1015.0
20260505161505 23 23 3.2 12.9 0.00 0.00 0.00 44 1015.0
20260505161005 24 171 8.0 19.3 0.00 0.00 0.00 44 1015.0
20260505153006 23 108 3.2 9.7 0.00 0.00 0.00 46 1015.0
20260505152505 23 26 3.2 11.3 0.00 0.00 0.00 46 1015.0
20260505152005 24 222 3.2 11.3 0.00 0.00 0.00 45 1015.0
20260505151506 24 340 0.0 11.3 0.00 0.00 0.00 47 1015.0
20260505150505 23 80 0.0 1.6 0.00 0.00 0.00 50 1015.0
20260505140505 20 193 0.0 0.0 0.00 0.00 0.00 67 1014.8
20260505125005 13 229 0.0 0.0 0.00 0.00 0.00 86 1013.6
20260505124504 12 229 0.0 0.0 0.00 0.00 0.00 87 1013.6
20260505123005 11 229 0.0 0.0 0.00 0.00 0.00 91 1013.6
20260505122505 11 229 0.0 0.0 0.00 0.00 0.00 91 1013.6
20260505122005 11 229 0.0 0.0 0.00 0.00 0.00 91 1013.6
20260505121505 10 229 0.0 0.0 0.00 0.00 0.00 92 1013.6
20260505121005 10 229 0.0 0.0 0.00 0.00 0.00 92 1013.6
20260505120505 10 229 0.0 0.0 0.00 0.00 0.00 92 1013.6
20260505120006 10 229 0.0 0.0 0.00 0.00 0.00 92 1013.6
20260505114505 8 229 0.0 0.0 0.00 0.00 0.00 93 1013.6
20260505114005 8 229 0.0 0.0 0.00 0.00 0.00 93 1013.6
20260505113505 8 229 0.0 0.0 0.00 0.00 0.00 93 1013.6
20260505113006 8 229 0.0 0.0 0.00 0.00 0.00 93 1013.6
20260505112505 8 229 0.0 0.0 0.00 0.00 0.00 93 1013.6
20260505112005 8 229 0.0 0.0 0.00 0.00 0.00 93 1013.6
20260505111505 8 229 0.0 0.0 0.00 0.00 0.00 93 1013.6
20260505111006 7 229 0.0 0.0 0.00 0.00 0.00 93 1013.6
20260505110505 7 229 0.0 0.0 0.00 0.00 0.00 93 1013.6
20260505101505 7 229 0.0 0.0 0.00 0.00 0.00 92 1013.7
20260505101006 7 229 0.0 0.0 0.00 0.00 0.00 92 1013.7
20260505100505 7 229 0.0 0.0 0.00 0.00 0.00 92 1013.7
20260505100005 7 229 0.0 0.0 0.00 0.00 0.00 92 1013.7
20260505095505 8 229 0.0 0.0 0.00 0.00 0.00 92 1013.7
20260505095005 8 229 0.0 0.0 0.00 0.00 0.00 92 1013.7
20260505094507 8 229 0.0 0.0 0.00 0.00 0.00 92 1013.7
20260505094005 8 229 0.0 0.0 0.00 0.00 0.00 92 1013.7
20260505093505 8 229 0.0 0.0 0.00 0.00 0.00 92 1013.7
20260505093005 8 229 0.0 0.0 0.00 0.00 0.00 92 1013.7
20260505092005 8 229 0.0 0.0 0.00 0.00 0.00 92 1013.7
20260505091505 8 229 0.0 0.0 0.00 0.00 0.00 92 1013.7
20260505091005 8 229 0.0 0.0 0.00 0.00 0.00 92 1013.7
20260505090505 8 229 0.0 0.0 0.00 0.00 0.00 92 1013.7
20260505090005 8 229 0.0 0.0 0.00 0.00 0.00 92 1013.7
20260505085504 8 229 0.0 0.0 0.00 0.00 0.00 92 1013.7
20260505085005 8 229 0.0 0.0 0.00 0.00 0.00 92 1013.7
20260505084505 8 229 0.0 0.0 0.00 0.00 0.00 92 1013.7
20260505083006 8 229 0.0 0.0 0.00 0.00 0.00 92 1013.7
20260505082005 8 229 0.0 0.0 0.00 0.00 0.00 92 1013.7
20260505081506 8 229 0.0 0.0 0.00 0.00 0.00 91 1013.7
20260505081006 8 229 0.0 0.0 0.00 0.00 0.00 92 1013.7
20260505080505 8 229 0.0 0.0 0.00 0.00 0.00 92 1013.7
20260505080005 8 229 0.0 0.0 0.00 0.00 0.00 91 1013.7
20260505075505 9 229 0.0 0.0 0.00 0.00 0.00 91 1013.7
20260505075006 9 229 0.0 0.0 0.00 0.00 0.00 91 1013.7
20260505074005 9 229 0.0 0.0 0.00 0.00 0.00 91 1013.7
20260505073505 9 229 0.0 0.0 0.00 0.00 0.00 91 1013.7
20260505073006 9 229 0.0 0.0 0.00 0.00 0.00 91 1013.7
20260505072505 9 229 0.0 0.0 0.00 0.00 0.00 91 1013.7
20260505072005 9 229 0.0 0.0 0.00 0.00 0.00 91 1013.7
20260505071505 9 229 0.0 0.0 0.00 0.00 0.00 91 1013.7
20260505071005 9 229 0.0 0.0 0.00 0.00 0.00 91 1013.7
20260505070505 9 229 0.0 0.0 0.00 0.00 0.00 91 1013.7
20260505070005 9 229 0.0 0.0 0.00 0.00 0.00 90 1013.7
20260505065506 10 229 0.0 0.0 0.00 0.00 0.00 91 1013.7
20260505064505 10 229 0.0 0.0 0.00 0.00 0.00 90 1013.7
20260505064006 10 229 0.0 0.0 0.00 0.00 0.00 90 1014.2
20260505063505 10 229 0.0 0.0 0.00 0.00 0.00 90 1014.2
20260505063005 10 229 0.0 0.0 0.00 0.00 0.00 90 1014.2
20260505062505 10 229 0.0 0.0 0.00 0.00 0.00 90 1014.2
20260505062005 10 229 0.0 0.0 0.00 0.00 0.00 90 1014.2
20260505061505 10 229 0.0 0.0 0.00 0.00 0.00 89 1014.2
20260505061005 10 229 0.0 0.0 0.00 0.00 0.00 89 1014.2
20260505060505 10 229 0.0 0.0 0.00 0.00 0.00 89 1014.2
20260505060005 10 229 0.0 0.0 0.00 0.00 0.00 89 1014.2
20260505055505 10 229 0.0 0.0 0.00 0.00 0.00 89 1014.2
20260505055005 10 229 0.0 0.0 0.00 0.00 0.00 89 1014.2
20260505054504 10 229 0.0 0.0 0.00 0.00 0.00 89 1014.2
20260505053505 10 229 0.0 0.0 0.00 0.00 0.00 89 1014.2
20260505053005 11 229 0.0 0.0 0.00 0.00 0.00 88 1014.2
20260505052506 11 229 0.0 0.0 0.00 0.00 0.00 88 1014.2
20260505052005 11 229 0.0 0.0 0.00 0.00 0.00 88 1014.2
20260505051505 11 229 0.0 0.0 0.00 0.00 0.00 88 1014.2
20260505051005 11 229 0.0 0.0 0.00 0.00 0.00 88 1014.2
20260505050505 11 229 0.0 0.0 0.00 0.00 0.00 88 1014.2
20260505041505 11 177 0.0 0.0 0.00 0.00 0.00 85 1014.0
20260505041005 12 177 0.0 0.0 0.00 0.00 0.00 84 1014.0
20260505040506 12 177 0.0 0.0 0.00 0.00 0.00 84 1014.0
20260505040005 12 177 0.0 0.0 0.00 0.00 0.00 84 1014.2
20260505035506 12 177 0.0 0.0 0.00 0.00 0.00 83 1014.2
20260505035006 12 177 0.0 0.0 0.00 0.00 0.00 83 1014.2
20260505034504 12 177 0.0 0.0 0.00 0.00 0.00 83 1014.2
20260505034005 12 177 0.0 0.0 0.00 0.00 0.00 83 1014.2
20260505033505 12 177 0.0 0.0 0.00 0.00 0.00 82 1014.2
20260505033006 12 177 0.0 0.0 0.00 0.00 0.00 82 1014.2
20260505032506 12 177 0.0 0.0 0.00 0.00 0.00 81 1014.2
20260505032005 13 177 0.0 0.0 0.00 0.00 0.00 81 1014.2
20260505031506 13 177 0.0 0.0 0.00 0.00 0.00 81 1014.2
20260505031005 13 177 0.0 0.0 0.00 0.00 0.00 80 1014.2
20260505030505 13 177 0.0 0.0 0.00 0.00 0.00 80 1014.2
20260505030005 13 177 0.0 0.0 0.00 0.00 0.00 79 1013.3
20260505025007 13 177 0.0 0.0 0.00 0.00 0.00 78 1013.3
20260505024506 13 177 0.0 0.0 0.00 0.00 0.00 77 1013.3
20260505024005 14 177 0.0 0.0 0.00 0.00 0.00 77 1013.3
20260505023506 14 177 0.0 0.0 0.00 0.00 0.00 77 1013.3
20260505023006 14 177 0.0 0.0 0.00 0.00 0.00 76 1013.3
20260505022504 14 177 0.0 0.0 0.00 0.00 0.00 75 1013.3
20260505021505 15 177 0.0 1.6 0.00 0.00 0.00 74 1013.3
20260505021005 15 177 0.0 0.0 0.00 0.00 0.00 73 1013.3
20260505020505 15 177 0.0 0.0 0.00 0.00 0.00 72 1013.3
20260505020005 15 177 0.0 0.0 0.00 0.00 0.00 71 1013.3
20260505015505 15 177 0.0 0.0 0.00 0.00 0.00 70 1013.3
20260505015006 15 177 0.0 0.0 0.00 0.00 0.00 69 1013.3
20260505014506 16 177 0.0 0.0 0.00 0.00 0.00 68 1013.3
20260505014005 16 177 0.0 0.0 0.00 0.00 0.00 67 1013.3
20260505013505 16 177 0.0 0.0 0.00 0.00 0.00 66 1013.3
20260505013005 16 177 0.0 0.0 0.00 0.00 0.00 65 1013.3
20260505012506 17 177 0.0 0.0 0.00 0.00 0.00 64 1013.3
20260505012005 17 177 0.0 0.0 0.00 0.00 0.00 63 1013.3
20260505011510 17 177 0.0 0.0 0.00 0.00 0.00 62 1013.3
20260505011005 17 177 0.0 0.0 0.00 0.00 0.00 61 1013.3
20260505010505 18 177 0.0 0.0 0.00 0.00 0.00 60 1013.3
20260505010006 18 177 0.0 0.0 0.00 0.00 0.00 58 1013.1